EDT,Max TemperatureF,Mean TemperatureF,Min TemperatureF,Max Dew PointF,MeanDew PointF,Min DewpointF,Max Humidity, Mean Humidity, Min Humidity, Max Sea Level PressureIn, Mean Sea Level PressureIn, Min Sea Level PressureIn, Max VisibilityMiles, Mean VisibilityMiles, Min VisibilityMiles, Max Wind SpeedMPH, Mean Wind SpeedMPH, Max Gust SpeedMPH,PrecipitationIn, CloudCover, Events, WindDirDegrees
2013-3-1,44,40,35,30,28,25,70,59,49,29.91,29.84,29.74,10,10,10,18,11,23,0.00,8,,310
2013-3-2,37,32,28,27,23,19,86,66,52,29.91,29.88,29.84,10,10,10,20,10,24,0.00,4,,327
2013-3-3,42,35,28,25,20,18,80,58,36,29.95,29.87,29.82,10,10,10,23,11,31,0.00,3,,313
2013-3-4,44,36,28,21,17,12,74,49,27,30.06,30.00,29.95,10,10,10,23,13,30,0.00,0,,316
2013-3-5,50,38,26,34,24,16,100,64,26,30.08,29.99,29.80,10,9,1,15,4,20,0.01,3,,105
2013-3-6,37,35,33,36,34,32,100,96,87,30.01,29.79,29.60,10,5,1,33,10,40,0.00,7,Snow,4
2013-3-7,46,40,33,32,30,27,87,71,4,30.18,30.10,30.01,10,10,10,23,10,29,0.00,1,,326
2013-3-8,48,42,35,30,29,27,81,68,50,30.29,30.21,30.16,10,10,10,25,12,34,0.00,4,,328
2013-3-9,59,44,30,36,28,23,100,70,25,30.36,30.30,30.26,10,10,10,13,8,17,0.00,0,,343
2013-3-10,64,44,24,37,27,21,100,55,22,30.33,30.27,30.16,10,10,7,15,4,21,0.00,0,,152
2013-3-11,60,48,37,50,43,36,100,81,63,30.24,30.11,29.92,10,10,10,18,8,25,0.00,5,,151
2013-3-12,57,48,39,57,44,32,100,77,58,29.98,29.86,29.73,10,9,1,20,13,25,0.00,4,Rain,3
2013-3-13,48,38,28,34,26,19,100,65,32,30.09,29.99,29.92,10,10,10,21,8,29,0.00,1,,312
2013-3-14,46,38,30,27,19,16,86,52,29,30.16,30.10,30.05,10,10,10,25,13,34,0.00,2,,309
2013-3-15,59,41,23,36,26,18,100,62,28,30.11,29.96,29.79,10,10,10,16,4,23,0.00,0,,203
2013-3-16,62,48,33,52,38,34,100,86,54,29.92,29.79,29.63,10,10,6,16,4,23,0.00,6,,1
2013-3-17,39,34,30,37,33,28,100,92,65,30.29,30.10,29.92,10,7,2,9,5,,0.00,4,,318
2013-3-18,35,34,32,36,34,32,100,99,93,30.33,30.15,29.90,10,4,0,6,2,,0.01,8,Fog-Snow,244
2013-3-19,59,47,35,41,25,7,100,62,15,29.93,29.83,29.74,10,8,2,23,6,34,0.00,4,,285
2013-3-20,51,38,24,28,16,9,86,37,21,30.01,29.90,29.77,10,10,10,17,8,30,0.00,2,,275
2013-3-21,39,34,26,30,17,9,87,53,35,29.93,29.84,29.78,10,10,5,21,13,31,0.00,5,,323
2013-3-22,50,36,21,27,18,14,86,49,28,30.01,29.94,29.88,10,10,10,17,6,25,0.00,0,,289
2013-3-23,55,38,21,28,22,18,100,57,23,30.05,29.99,29.91,10,10,10,14,3,22,0.00,0,,312
2013-3-24,42,34,26,34,28,19,100,84,39,30.02,29.86,29.66,10,8,1,8,2,,0.00,4,,24
2013-3-25,39,36,33,37,35,32,100,98,87,29.72,29.62,29.54,10,5,1,9,3,,0.00,8,Snow,327
2013-3-26,48,39,30,36,31,27,100,73,46,30.01,29.86,29.72,10,8,2,18,4,25,0.00,7,,311
2013-3-27,50,42,35,30,28,25,75,58,40,30.15,30.08,30.02,10,10,10,24,10,31,0.00,3,,303
2013-3-28,48,37,26,32,29,27,100,71,46,30.25,30.17,30.11,10,10,10,22,6,29,0.00,5,,302
2013-3-29,55,44,32,37,32,27,100,68,33,30.28,30.22,30.16,10,10,10,14,3,22,0.00,6,,333
2013-3-30,60,44,28,36,30,23,100,79,25,30.24,30.17,30.11,10,10,10,9,1,,0.00,2,,276
2013-3-31,51,43,35,52,42,34,100,89,66,30.12,29.91,29.76,10,8,0,12,2,,0.01,5,,187